This demonstration page uses our WeatherBlox Daily Observations layout. Learn more.

Left ArrowRight Arrow

Hourly Observations for June 28, 2021

Temp ( °F °C ) Dew Point ( °F °C ) Humidity (%) Winds ( mph kmh ) Pressure ( in mb ) Visibility ( mi km ) Precip ( " mm )
12:15 am 00:15 Cloudy 68 19.8 62 16.9 83 83 W 5 7 29.99 1016 10 16 N/A
12:55 am 00:55 Cloudy 68 20 62 16.8 82 82 ENE 3 6 29.99 1015 10 16 N/A
1:15 am 01:15 Cloudy with Drizzle 69 20.5 60 15.8 75 75 S 6 9 29.97 1015 10 16 N/A
1:35 am 01:35 Cloudy 66 19.1 61 16.3 84 84 SSW 17 28 29.99 1016 3 4 0.22 5.59
1:55 am 01:55 Cloudy with Strong Thunderstorms 65 18.5 59 14.9 80 80 SSW 5 7 30.01 1016 1 2 0.95 24.13
2:15 am 02:15 Cloudy with Strong Thunderstorms 62 16.9 60 15.6 92 92 WSW 13 20 30.03 1017 4 6 0.15 3.81
2:35 am 02:35 Cloudy with Strong Thunderstorms 63 17.4 61 16 92 92 WNW 10 17 30.04 1017 5 8 0.40 10.16
2:55 am 02:55 Cloudy 63 17.1 60 15.8 92 92 WNW 10 17 30.05 1018 7 11 0.45 11.43
3:15 am 03:15 Cloudy with Heavy Rain 62 16.6 59 15.1 91 91 NNW 6 9 30.05 1017 5 8 0.15 3.81
3:35 am 03:35 Cloudy with Heavy Rain 62 16.7 60 15.3 92 92 SE 5 7 30.06 1018 5 8 0.22 5.59
3:55 am 03:55 Cloudy with Rain 61 16.3 60 15.5 95 95 E 9 15 30.04 1017 5 8 0.33 8.38
4:15 am 04:15 Mostly Cloudy with Light Rain 62 16.5 59 15 91 91 E 7 11 30.03 1017 10 16 0.02 0.51
4:35 am 04:35 Partly Cloudy 62 16.5 59 15 91 91 N N/A 30.04 1017 10 16 0.02 0.51
4:55 am 04:55 Clear 61 16.3 59 15.1 93 93 ESE 6 9 30.03 1017 10 16 0.02 0.51
5:15 am 05:15 Partly Cloudy 61 16.2 59 15 93 93 SSE 6 9 30.03 1017 10 16 N/A
5:35 am 05:35 Cloudy 61 16 59 15 94 94 N N/A 30.04 1017 10 16 N/A
5:55 am 05:55 Cloudy 61 16 59 15 94 94 N N/A 30.04 1017 10 16 N/A
6:15 am 06:15 Mostly Cloudy 61 15.9 58 14.7 93 93 N N/A 30.04 1017 10 16 N/A
6:35 am 06:35 Partly Cloudy 60 15.8 58 14.5 92 92 N N/A 30.04 1017 10 16 N/A
6:55 am 06:55 Sunny 59 15.2 58 14.5 96 96 N N/A 30.06 1018 10 16 N/A
7:15 am 07:15 Sunny 59 15.1 58 14.3 95 95 NW 6 9 30.06 1018 10 16 N/A
7:35 am 07:35 Sunny 60 15.6 59 14.9 96 96 N N/A 30.05 1018 10 16 N/A
7:55 am 07:55 Sunny 60 15.7 59 15 96 96 N N/A 30.07 1018 10 16 N/A
8:15 am 08:15 Sunny 61 16 59 15.2 95 95 N N/A 30.07 1018 10 16 N/A
8:35 am 08:35 Sunny 63 17.4 60 15.8 90 90 NNW 5 7 30.06 1018 10 16 N/A
8:55 am 08:55 Sunny 65 18.4 61 16.1 87 87 NNW 7 11 30.06 1018 10 16 N/A
9:15 am 09:15 Sunny 67 19.3 62 16.4 83 83 N 6 9 30.05 1018 10 16 N/A
9:55 am 09:55 Sunny 70 20.9 61 16.2 75 75 NNW 7 11 30.04 1017 10 16 N/A
10:15 am 10:15 Sunny 71 21.4 61 15.9 71 71 NNW 6 9 30.04 1017 10 16 N/A
10:35 am 10:35 Sunny 71 21.7 59 15 66 66 NNW 8 13 30.02 1017 10 16 N/A
10:55 am 10:55 Sunny 72 22.4 60 15.5 65 65 N N/A 30.03 1017 10 16 N/A
11:15 am 11:15 Sunny 73 23 57 13.7 56 56 N 6 9 30.02 1017 10 16 N/A
11:35 am 11:35 Sunny 74 23.6 59 15.2 59 59 NNW 3 6 30.02 1017 10 16 N/A
11:55 am 11:55 Sunny 75 23.9 58 14.6 56 56 NNW 3 6 30.01 1016 10 16 N/A
12:15 pm 12:15 Sunny 75 24.1 58 14.5 55 55 NNE 3 6 30.01 1016 10 16 N/A
12:35 pm 12:35 Sunny 76 24.5 58 14.4 53 53 N N/A 30.01 1016 10 16 N/A
12:55 pm 12:55 Sunny 76 24.7 58 14.6 53 53 NNE 7 11 30.01 1016 10 16 N/A
1:15 pm 13:15 Sunny 77 25 58 14.4 52 52 WNW 3 6 30.01 1016 10 16 N/A
1:35 pm 13:35 Sunny 77 25.2 58 14.3 51 51 N 3 6 30.00 1016 10 16 N/A
1:55 pm 13:55 Sunny 77 25.2 58 14.5 52 52 N N/A 29.99 1016 10 16 N/A
2:15 pm 14:15 Sunny 78 25.7 58 14.5 50 50 N N/A 29.99 1016 10 16 N/A
2:35 pm 14:35 Mostly Cloudy 79 25.9 60 15.5 53 53 NE 5 7 29.99 1016 10 16 N/A
2:55 pm 14:55 Partly Cloudy 78 25.8 59 14.9 51 51 N N/A 29.99 1016 10 16 N/A
3:15 pm 15:15 Mostly Cloudy 77 25.1 58 14.6 52 52 ESE 6 9 29.98 1015 10 16 N/A
3:35 pm 15:35 Mostly Cloudy 79 26.1 60 15.8 53 53 SE 5 7 29.97 1015 10 16 N/A
3:55 pm 15:55 Mostly Cloudy 78 25.3 59 15.2 54 54 ENE 5 7 29.96 1015 10 16 N/A
4:15 pm 16:15 Partly Cloudy 79 26.2 60 15.7 52 52 SSE 5 7 29.96 1014 10 16 N/A
4:35 pm 16:35 Partly Cloudy 80 26.4 59 15.1 50 50 ESE 5 7 29.96 1014 10 16 N/A
4:55 pm 16:55 Partly Cloudy 80 26.5 59 15.1 50 50 ESE 3 6 29.95 1014 10 16 N/A
5:15 pm 17:15 Sunny 80 26.4 58 14.7 49 49 N N/A 29.96 1014 10 16 N/A
5:35 pm 17:35 Sunny 78 25.7 59 15.1 52 52 N N/A 29.96 1015 10 16 N/A
5:55 pm 17:55 Sunny 80 26.5 58 14.3 47 47 N N/A 29.95 1014 10 16 N/A
6:15 pm 18:15 Sunny 80 26.5 59 15.2 50 50 N N/A 29.95 1014 10 16 N/A
6:35 pm 18:35 Sunny 80 26.5 59 14.8 49 49 ESE 5 7 29.94 1014 10 16 N/A
6:55 pm 18:55 Sunny with Nearby Thunderstorms 79 25.9 57 13.7 47 47 N N/A 29.96 1015 10 16 N/A
7:15 pm 19:15 Sunny 77 25 62 16.6 60 60 N 6 9 29.98 1015 10 16 N/A
7:35 pm 19:35 Mostly Cloudy 72 22 60 15.7 68 68 N 10 17 30.01 1016 10 16 N/A
7:55 pm 19:55 Cloudy with Light Rain 69 20.6 62 16.7 78 78 N 9 15 30.03 1017 10 16 0.01 0.25
8:15 pm 20:15 Cloudy 69 20.5 62 16.9 80 80 NNE 12 19 30.03 1017 10 16 N/A
8:35 pm 20:35 Mostly Cloudy 69 20.3 63 17.1 82 82 NNE 9 15 30.04 1017 10 16 N/A
8:55 pm 20:55 Partly Cloudy 68 20 63 17.1 83 83 NE 7 11 30.05 1017 10 16 N/A
9:15 pm 21:15 Partly Cloudy 67 19.4 63 17 86 86 ENE 6 9 30.05 1018 10 16 N/A
9:35 pm 21:35 Mostly Cloudy 67 19.3 64 17.5 89 89 S 8 13 30.07 1018 10 16 N/A
9:55 pm 21:55 Cloudy 68 19.8 64 17.6 87 87 SE 5 7 30.08 1019 10 16 N/A
10:15 pm 22:15 Cloudy 67 19.7 63 17.4 87 87 SE 3 6 30.08 1019 10 16 N/A
10:35 pm 22:35 Cloudy with Nearby Thunderstorms 67 19.5 63 17.4 88 88 WNW 6 9 30.08 1019 10 16 N/A
10:55 pm 22:55 Cloudy 67 19.3 64 17.6 90 90 NW 7 11 30.10 1019 10 16 N/A
11:15 pm 23:15 Cloudy with Nearby Thunderstorms 67 19.7 63 17.4 87 87 W 6 9 30.11 1020 10 16 N/A
11:35 pm 23:35 Cloudy 68 20 64 17.5 86 86 W 7 11 30.11 1020 10 16 N/A
11:55 pm 23:55 Cloudy with Rain 67 19.2 62 16.7 86 86 NW 3 6 30.10 1019 5 8 0.05 1.27

Powered by AerisWeather